Time,TemperatureF,DewpointF,PressureIn,WindDirection,WindDirectionDegrees,WindSpeedMPH,WindSpeedGustMPH,Humidity,HourlyPrecipIn,Conditions,Clouds,dailyrainin,SolarRadiationWatts/m^2,SoftwareType,DateUTC
2013-02-02 00:00:00,25.3,6.4,30.30,NNE,27,0.0,0.0,44,0.00,,,0.00,0.00,VWS V14.01,2013-02-02 05:00:00,
2013-02-02 00:02:00,25.3,6.4,30.30,NNE,27,0.0,0.0,44,0.00,,,0.00,0.00,VWS V14.01,2013-02-02 05:02:00,
2013-02-02 00:07:00,25.1,5.8,30.30,NNE,27,0.0,0.0,43,0.00,,,0.00,0.00,VWS V14.01,2013-02-02 05:07:00,
2013-02-02 00:12:00,25.1,5.2,30.30,NNE,27,0.0,2.0,42,0.00,,,0.00,0.00,VWS V14.01,2013-02-02 05:12:00,
2013-02-02 00:17:00,25.1,4.7,30.31,NNE,27,0.0,0.0,41,0.00,,,0.00,0.00,VWS V14.01,2013-02-02 05:17:00,
2013-02-02 00:22:00,25.1,5.2,30.31,NNE,27,0.0,0.0,42,0.00,,,0.00,0.00,VWS V14.01,2013-02-02 05:22:00,
2013-02-02 00:27:00,25.1,6.3,30.31,NNE,27,0.0,0.0,44,0.00,,,0.00,0.00,VWS V14.01,2013-02-02 05:27:00,
2013-02-02 00:32:00,25.0,6.2,30.31,NNE,27,0.0,0.0,44,0.00,,,0.00,0.00,VWS V14.01,2013-02-02 05:32:00,
2013-02-02 00:37:00,24.7,6.4,30.31,NNE,27,0.0,0.0,45,0.00,,,0.00,0.00,VWS V14.01,2013-02-02 05:37:00,
2013-02-02 00:42:00,24.5,6.2,30.31,NNE,27,0.0,0.0,45,0.00,,,0.00,0.00,VWS V14.01,2013-02-02 05:42:00,
2013-02-02 00:47:00,24.2,6.4,30.31,NNE,27,0.0,0.0,46,0.00,,,0.00,0.00,VWS V14.01,2013-02-02 05:47:00,
2013-02-02 00:52:00,24.1,7.3,30.31,NNE,27,0.0,0.0,48,0.00,,,0.00,0.00,VWS V14.01,2013-02-02 05:52:00,
2013-02-02 00:57:00,23.9,7.1,30.31,NNE,27,0.0,0.0,48,0.00,,,0.00,0.00,VWS V14.01,2013-02-02 05:57:00,
2013-02-02 01:02:00,23.8,7.0,30.30,NNE,27,0.0,0.0,48,0.00,,,0.00,0.00,VWS V14.01,2013-02-02 06:02:00,
2013-02-02 01:07:00,23.6,7.3,30.30,NNE,27,0.0,0.0,49,0.00,,,0.00,0.00,VWS V14.01,2013-02-02 06:07:00,
2013-02-02 01:12:00,23.5,7.6,30.30,NNE,27,0.0,0.0,50,0.00,,,0.00,0.00,VWS V14.01,2013-02-02 06:12:00,
2013-02-02 01:17:00,23.3,7.9,30.30,NNE,27,0.0,0.0,51,0.00,,,0.00,0.00,VWS V14.01,2013-02-02 06:17:00,
2013-02-02 01:22:00,23.0,7.6,30.30,NNE,27,0.0,0.0,51,0.00,,,0.00,0.00,VWS V14.01,2013-02-02 06:22:00,
2013-02-02 01:27:00,22.9,7.1,30.30,NNE,27,0.0,0.0,50,0.00,,,0.00,0.00,VWS V14.01,2013-02-02 06:27:00,
2013-02-02 01:32:00,22.9,6.6,30.30,NNE,27,0.0,0.0,49,0.00,,,0.00,0.00,VWS V14.01,2013-02-02 06:32:00,
2013-02-02 01:37:00,23.0,6.7,30.30,NNE,27,0.0,0.0,49,0.00,,,0.00,0.00,VWS V14.01,2013-02-02 06:37:00,
2013-02-02 01:42:00,23.0,7.1,30.30,NNE,27,0.0,0.0,50,0.00,,,0.00,0.00,VWS V14.01,2013-02-02 06:42:00,
2013-02-02 01:47:00,23.2,7.8,30.30,NNE,27,0.0,2.0,51,0.00,,,0.00,0.00,VWS V14.01,2013-02-02 06:47:00,
2013-02-02 01:52:00,23.2,7.8,30.30,NNE,27,1.0,1.0,51,0.00,,,0.00,0.00,VWS V14.01,2013-02-02 06:52:00,
2013-02-02 01:57:00,23.3,8.3,30.30,NNE,27,1.0,1.0,52,0.00,,,0.00,0.00,VWS V14.01,2013-02-02 06:57:00,
2013-02-02 02:02:00,23.5,8.1,30.29,NE,44,2.0,4.0,51,0.00,,,0.00,0.00,VWS V14.01,2013-02-02 07:02:00,
2013-02-02 02:07:00,23.5,6.7,30.29,NNE,24,0.0,0.0,48,0.00,,,0.00,0.00,VWS V14.01,2013-02-02 07:07:00,
2013-02-02 02:12:00,23.6,6.3,30.29,NNE,25,0.0,0.0,47,0.00,,,0.00,0.00,VWS V14.01,2013-02-02 07:12:00,
2013-02-02 02:17:00,23.6,6.3,30.29,NNE,25,0.0,0.0,47,0.00,,,0.00,0.00,VWS V14.01,2013-02-02 07:17:00,
2013-02-02 02:22:00,23.6,6.3,30.29,NNE,25,0.0,0.0,47,0.00,,,0.00,0.00,VWS V14.01,2013-02-02 07:22:00,
2013-02-02 02:27:00,23.5,6.7,30.29,NNE,25,0.0,0.0,48,0.00,,,0.00,0.00,VWS V14.01,2013-02-02 07:27:00,
2013-02-02 02:32:00,23.3,7.0,30.29,NNE,25,0.0,0.0,49,0.00,,,0.00,0.00,VWS V14.01,2013-02-02 07:32:00,
2013-02-02 02:37:00,23.3,7.0,30.29,NNE,25,0.0,0.0,49,0.00,,,0.00,0.00,VWS V14.01,2013-02-02 07:37:00,
2013-02-02 02:42:00,23.2,6.4,30.29,NNE,25,0.0,0.0,48,0.00,,,0.00,0.00,VWS V14.01,2013-02-02 07:42:00,
2013-02-02 02:47:00,23.2,6.9,30.29,NNE,25,0.0,0.0,49,0.00,,,0.00,0.00,VWS V14.01,2013-02-02 07:47:00,
2013-02-02 02:52:00,23.0,6.2,30.29,NNE,25,0.0,0.0,48,0.00,,,0.00,0.00,VWS V14.01,2013-02-02 07:52:00,
2013-02-02 02:57:00,23.0,6.2,30.29,NNE,25,0.0,0.0,48,0.00,,,0.00,0.00,VWS V14.01,2013-02-02 07:57:00,
2013-02-02 03:06:00,22.9,7.1,30.29,NNE,25,0.0,0.0,50,0.00,,,0.00,0.00,VWS V14.01,2013-02-02 08:06:00,
2013-02-02 03:11:00,22.9,7.1,30.29,NNE,25,0.0,0.0,50,0.00,,,0.00,0.00,VWS V14.01,2013-02-02 08:11:00,
2013-02-02 03:15:00,22.9,7.1,30.30,NNE,25,0.0,0.0,50,0.00,,,0.00,0.00,VWS V14.01,2013-02-02 08:15:00,
2013-02-02 03:21:00,22.7,6.9,30.30,NNE,25,0.0,0.0,50,0.00,,,0.00,0.00,VWS V14.01,2013-02-02 08:21:00,
2013-02-02 03:26:00,22.7,7.7,30.30,NNE,25,0.0,0.0,52,0.00,,,0.00,0.00,VWS V14.01,2013-02-02 08:26:00,
2013-02-02 03:31:00,22.5,8.8,30.30,NNE,25,0.0,0.0,55,0.00,,,0.00,0.00,VWS V14.01,2013-02-02 08:31:00,
2013-02-02 03:36:00,22.2,8.1,30.30,NNE,25,0.0,0.0,54,0.00,,,0.00,0.00,VWS V14.01,2013-02-02 08:36:00,
2013-02-02 03:41:00,22.1,8.4,30.30,NNE,25,0.0,0.0,55,0.00,,,0.00,0.00,VWS V14.01,2013-02-02 08:41:00,
2013-02-02 03:45:00,21.8,8.5,30.30,NNE,25,0.0,0.0,56,0.00,,,0.00,0.00,VWS V14.01,2013-02-02 08:45:00,
2013-02-02 03:50:00,21.6,9.1,30.30,NNE,25,0.0,0.0,58,0.00,,,0.00,0.00,VWS V14.01,2013-02-02 08:50:00,
2013-02-02 03:55:00,21.4,8.9,30.30,NNE,25,0.0,0.0,58,0.00,,,0.00,0.00,VWS V14.01,2013-02-02 08:55:00,
2013-02-02 04:00:00,21.1,9.0,30.30,NNE,25,0.0,0.0,59,0.00,,,0.00,0.00,VWS V14.01,2013-02-02 09:00:00,
2013-02-02 04:05:00,21.0,8.9,30.30,NNE,25,0.0,0.0,59,0.00,,,0.00,0.00,VWS V14.01,2013-02-02 09:05:00,
2013-02-02 04:10:00,20.8,9.1,30.30,NNE,25,0.0,0.0,60,0.00,,,0.00,0.00,VWS V14.01,2013-02-02 09:10:00,
2013-02-02 04:15:00,20.6,8.9,30.30,NNE,25,0.0,0.0,60,0.00,,,0.00,0.00,VWS V14.01,2013-02-02 09:15:00,
2013-02-02 04:20:00,20.6,9.3,30.30,NNE,25,0.0,0.0,61,0.00,,,0.00,0.00,VWS V14.01,2013-02-02 09:20:00,
2013-02-02 04:25:00,20.6,9.7,30.30,NNE,25,0.0,0.0,62,0.00,,,0.00,0.00,VWS V14.01,2013-02-02 09:25:00,
2013-02-02 04:30:00,20.6,10.4,30.30,NNE,25,0.0,0.0,64,0.00,,,0.00,0.00,VWS V14.01,2013-02-02 09:30:00,
2013-02-02 04:35:00,20.6,10.4,30.30,NNE,25,0.0,0.0,64,0.00,,,0.00,0.00,VWS V14.01,2013-02-02 09:35:00,
2013-02-02 04:40:00,20.6,10.7,30.30,NNE,25,0.0,0.0,65,0.00,,,0.00,0.00,VWS V14.01,2013-02-02 09:40:00,
2013-02-02 04:45:00,20.5,10.6,30.30,NNE,25,0.0,0.0,65,0.00,,,0.00,0.00,VWS V14.01,2013-02-02 09:45:00,
2013-02-02 04:50:00,20.5,11.0,30.30,NNE,25,0.0,0.0,66,0.00,,,0.00,0.00,VWS V14.01,2013-02-02 09:50:00,
2013-02-02 04:55:00,20.3,10.8,30.30,NNE,25,0.0,0.0,66,0.00,,,0.00,0.00,VWS V14.01,2013-02-02 09:55:00,
2013-02-02 05:00:00,20.2,11.0,30.30,NNE,25,0.0,0.0,67,0.00,,,0.00,0.00,VWS V14.01,2013-02-02 10:00:00,
2013-02-02 05:05:00,20.2,11.0,30.30,NNE,25,0.0,0.0,67,0.00,,,0.00,0.00,VWS V14.01,2013-02-02 10:05:00,
2013-02-02 05:10:00,20.0,10.8,30.30,NNE,25,0.0,0.0,67,0.00,,,0.00,0.00,VWS V14.01,2013-02-02 10:10:00,
2013-02-02 05:15:00,19.9,10.7,30.30,NNE,25,0.0,0.0,67,0.00,,,0.00,0.00,VWS V14.01,2013-02-02 10:15:00,
2013-02-02 05:20:00,19.9,11.1,30.30,NNE,25,0.0,0.0,68,0.00,,,0.00,0.00,VWS V14.01,2013-02-02 10:20:00,
2013-02-02 05:25:00,19.7,10.9,30.30,NNE,25,0.0,0.0,68,0.00,,,0.00,0.00,VWS V14.01,2013-02-02 10:25:00,
2013-02-02 05:30:00,19.7,10.9,30.30,NNE,25,0.0,0.0,68,0.00,,,0.00,0.00,VWS V14.01,2013-02-02 10:30:00,
2013-02-02 05:35:00,19.5,10.7,30.30,NNE,25,0.0,0.0,68,0.00,,,0.00,0.00,VWS V14.01,2013-02-02 10:35:00,
2013-02-02 05:40:00,19.5,10.7,30.30,NNE,25,0.0,0.0,68,0.00,,,0.00,0.00,VWS V14.01,2013-02-02 10:40:00,
2013-02-02 05:45:00,19.4,10.9,30.30,NNE,25,0.0,0.0,69,0.00,,,0.00,0.00,VWS V14.01,2013-02-02 10:45:00,
2013-02-02 05:50:00,19.2,11.0,30.30,NNE,25,0.0,0.0,70,0.00,,,0.00,0.00,VWS V14.01,2013-02-02 10:50:00,
2013-02-02 05:55:00,19.2,11.0,30.30,NNE,25,0.0,0.0,70,0.00,,,0.00,0.00,VWS V14.01,2013-02-02 10:55:00,
2013-02-02 06:00:00,19.1,11.3,30.30,NNE,25,0.0,0.0,71,0.00,,,0.00,0.00,VWS V14.01,2013-02-02 11:00:00,
2013-02-02 06:05:00,19.1,11.6,30.30,NNE,25,0.0,0.0,72,0.00,,,0.00,0.00,VWS V14.01,2013-02-02 11:05:00,
2013-02-02 06:10:00,18.9,11.4,30.30,NNE,25,0.0,0.0,72,0.00,,,0.00,0.00,VWS V14.01,2013-02-02 11:10:00,
2013-02-02 06:15:00,18.9,11.4,30.31,NNE,25,0.0,0.0,72,0.00,,,0.00,0.00,VWS V14.01,2013-02-02 11:15:00,
2013-02-02 06:20:00,18.8,11.3,30.31,NNE,25,0.0,0.0,72,0.00,,,0.00,0.00,VWS V14.01,2013-02-02 11:20:00,
2013-02-02 06:25:00,18.6,11.4,30.31,NNE,25,0.0,0.0,73,0.00,,,0.00,0.00,VWS V14.01,2013-02-02 11:25:00,
2013-02-02 06:30:00,18.4,11.2,30.31,NNE,25,0.0,0.0,73,0.00,,,0.00,0.00,VWS V14.01,2013-02-02 11:30:00,
2013-02-02 06:35:00,18.4,11.5,30.31,NNE,25,0.0,0.0,74,0.00,,,0.00,0.00,VWS V14.01,2013-02-02 11:35:00,
2013-02-02 06:40:00,18.4,11.5,30.31,NNE,25,0.0,0.0,74,0.00,,,0.00,0.00,VWS V14.01,2013-02-02 11:40:00,
2013-02-02 06:45:00,18.4,11.8,30.32,NNE,25,0.0,0.0,75,0.00,,,0.00,0.00,VWS V14.01,2013-02-02 11:45:00,
2013-02-02 06:50:00,18.3,11.7,30.32,NNE,25,0.0,0.0,75,0.00,,,0.00,0.00,VWS V14.01,2013-02-02 11:50:00,
2013-02-02 06:55:00,18.3,12.0,30.32,NNE,25,0.0,0.0,76,0.00,,,0.00,0.00,VWS V14.01,2013-02-02 11:55:00,
2013-02-02 07:00:00,18.4,12.1,30.32,NNE,25,0.0,0.0,76,0.00,,,0.00,0.00,VWS V14.01,2013-02-02 12:00:00,
2013-02-02 07:05:00,18.4,12.4,30.32,NNE,25,0.0,0.0,77,0.00,,,0.00,0.00,VWS V14.01,2013-02-02 12:05:00,
2013-02-02 07:10:00,18.4,12.4,30.32,NNE,25,0.0,0.0,77,0.00,,,0.00,0.00,VWS V14.01,2013-02-02 12:10:00,
2013-02-02 07:15:00,18.4,12.4,30.32,NNE,25,0.0,0.0,77,0.00,,,0.00,5.00,VWS V14.01,2013-02-02 12:15:00,
2013-02-02 07:20:00,18.4,12.4,30.32,NNE,25,0.0,0.0,77,0.00,,,0.00,7.00,VWS V14.01,2013-02-02 12:20:00,
2013-02-02 07:25:00,18.3,12.6,30.32,NNE,25,0.0,0.0,78,0.00,,,0.00,9.00,VWS V14.01,2013-02-02 12:25:00,
2013-02-02 07:30:00,18.3,12.9,30.32,NNE,25,0.0,0.0,79,0.00,,,0.00,11.00,VWS V14.01,2013-02-02 12:30:00,
2013-02-02 07:35:00,18.3,12.9,30.32,NNE,25,0.0,0.0,79,0.00,,,0.00,12.00,VWS V14.01,2013-02-02 12:35:00,
2013-02-02 07:40:00,18.3,12.9,30.32,NNE,25,0.0,0.0,79,0.00,,,0.00,16.00,VWS V14.01,2013-02-02 12:40:00,
2013-02-02 07:45:00,18.4,13.3,30.32,NNE,25,0.0,0.0,80,0.00,,,0.00,18.00,VWS V14.01,2013-02-02 12:45:00,
2013-02-02 07:50:00,18.6,13.5,30.32,NNE,25,0.0,0.0,80,0.00,,,0.00,21.00,VWS V14.01,2013-02-02 12:50:00,
2013-02-02 07:55:00,18.8,13.7,30.32,NNE,25,0.0,0.0,80,0.00,,,0.00,21.00,VWS V14.01,2013-02-02 12:55:00,
2013-02-02 08:01:00,19.1,14.0,30.32,NNE,25,0.0,0.0,80,0.00,,,0.00,23.00,VWS V14.01,2013-02-02 13:01:00,
2013-02-02 08:05:00,19.4,14.2,30.32,NNE,25,0.0,0.0,80,0.00,,,0.00,25.00,VWS V14.01,2013-02-02 13:05:00,
2013-02-02 08:10:00,19.7,14.5,30.32,NNE,25,0.0,0.0,80,0.00,,,0.00,25.00,VWS V14.01,2013-02-02 13:10:00,
2013-02-02 08:15:00,20.0,14.8,30.32,NNE,25,0.0,0.0,80,0.00,,,0.00,26.00,VWS V14.01,2013-02-02 13:15:00,
2013-02-02 08:20:00,20.3,14.6,30.32,NNE,25,0.0,0.0,78,0.00,,,0.00,26.00,VWS V14.01,2013-02-02 13:20:00,
2013-02-02 08:25:00,20.8,14.4,30.32,NNE,25,0.0,0.0,76,0.00,,,0.00,28.00,VWS V14.01,2013-02-02 13:25:00,
2013-02-02 08:30:00,21.3,14.3,30.32,NNE,25,0.0,0.0,74,0.00,,,0.00,28.00,VWS V14.01,2013-02-02 13:30:00,
2013-02-02 08:35:00,22.1,13.8,30.32,NNE,25,0.0,0.0,70,0.00,,,0.00,28.00,VWS V14.01,2013-02-02 13:35:00,
2013-02-02 08:40:00,22.5,13.2,30.32,NNE,25,0.0,0.0,67,0.00,,,0.00,30.00,VWS V14.01,2013-02-02 13:40:00,
2013-02-02 08:45:00,23.2,12.1,30.33,SSW,192,4.0,4.0,62,0.00,,,0.00,30.00,VWS V14.01,2013-02-02 13:45:00,
2013-02-02 08:50:00,23.9,11.7,30.33,South,188,5.0,5.0,59,0.00,,,0.00,262.00,VWS V14.01,2013-02-02 13:50:00,
2013-02-02 08:55:00,25.0,11.1,30.33,SSW,192,0.0,0.0,55,0.00,,,0.00,276.00,VWS V14.01,2013-02-02 13:55:00,
2013-02-02 09:00:00,26.1,10.0,30.32,South,180,0.0,0.0,50,0.00,,,0.00,287.00,VWS V14.01,2013-02-02 14:00:00,
2013-02-02 09:05:00,27.3,9.7,30.32,South,173,4.0,4.0,47,0.00,,,0.00,299.00,VWS V14.01,2013-02-02 14:05:00,
2013-02-02 09:10:00,28.2,8.6,30.32,South,185,2.0,6.0,43,0.00,,,0.00,316.00,VWS V14.01,2013-02-02 14:10:00,
2013-02-02 09:15:00,28.8,8.6,30.32,South,172,0.0,3.0,42,0.00,,,0.00,330.00,VWS V14.01,2013-02-02 14:15:00,
2013-02-02 09:20:00,29.3,9.1,30.32,SE,139,0.0,3.0,42,0.00,,,0.00,343.00,VWS V14.01,2013-02-02 14:20:00,
2013-02-02 09:25:00,29.8,9.0,30.32,South,190,0.0,0.0,41,0.00,,,0.00,357.00,VWS V14.01,2013-02-02 14:25:00,
2013-02-02 09:30:00,30.3,8.3,30.32,South,186,0.0,0.0,39,0.00,,,0.00,373.00,VWS V14.01,2013-02-02 14:30:00,
2013-02-02 09:36:00,30.7,8.7,30.32,SSE,153,0.0,0.0,39,0.00,,,0.00,387.00,VWS V14.01,2013-02-02 14:36:00,
2013-02-02 09:41:00,31.0,9.0,30.32,SSE,160,0.0,3.0,39,0.00,,,0.00,399.00,VWS V14.01,2013-02-02 14:41:00,
2013-02-02 09:46:00,31.6,9.5,30.32,ESE,117,3.0,5.0,39,0.00,,,0.00,413.00,VWS V14.01,2013-02-02 14:46:00,
2013-02-02 09:51:00,31.9,9.2,30.32,SE,125,0.0,0.0,38,0.00,,,0.00,431.00,VWS V14.01,2013-02-02 14:51:00,
2013-02-02 09:56:00,32.4,9.1,30.32,ESE,111,0.0,2.0,37,0.00,,,0.00,452.00,VWS V14.01,2013-02-02 14:56:00,
2013-02-02 10:01:00,32.7,9.9,30.31,SSW,210,0.0,0.0,38,0.00,,,0.00,441.00,VWS V14.01,2013-02-02 15:01:00,
2013-02-02 10:06:00,32.9,9.5,30.31,SSW,206,0.0,0.0,37,0.00,,,0.00,494.00,VWS V14.01,2013-02-02 15:06:00,
2013-02-02 10:11:00,33.1,8.4,30.31,South,185,0.0,0.0,35,0.00,,,0.00,380.00,VWS V14.01,2013-02-02 15:11:00,
2013-02-02 10:16:00,32.8,8.2,30.31,SW,216,0.0,2.0,35,0.00,,,0.00,225.00,VWS V14.01,2013-02-02 15:16:00,
2013-02-02 10:21:00,32.1,7.6,30.31,South,190,4.0,4.0,35,0.00,,,0.00,285.00,VWS V14.01,2013-02-02 15:21:00,
2013-02-02 10:25:00,32.2,7.6,30.31,South,178,0.0,2.0,35,0.00,,,0.00,285.00,VWS V14.01,2013-02-02 15:25:00,
2013-02-02 10:30:00,32.5,7.9,30.31,South,174,0.0,0.0,35,0.00,,,0.00,404.00,VWS V14.01,2013-02-02 15:30:00,
2013-02-02 10:35:00,32.7,7.4,30.31,SSW,200,0.0,0.0,34,0.00,,,0.00,418.00,VWS V14.01,2013-02-02 15:35:00,
2013-02-02 10:41:00,32.7,7.4,30.31,SSW,195,3.0,4.0,34,0.00,,,0.00,399.00,VWS V14.01,2013-02-02 15:41:00,
2013-02-02 10:46:00,32.9,8.3,30.30,SSW,192,2.0,4.0,35,0.00,,,0.00,612.00,VWS V14.01,2013-02-02 15:46:00,
2013-02-02 10:51:00,33.4,7.4,30.30,SW,221,2.0,3.0,33,0.00,,,0.00,374.00,VWS V14.01,2013-02-02 15:51:00,
2013-02-02 10:55:00,33.2,7.2,30.30,SSW,198,0.0,0.0,33,0.00,,,0.00,380.00,VWS V14.01,2013-02-02 15:55:00,
2013-02-02 11:00:00,34.1,10.0,30.28,SSW,195,0.0,5.0,36,0.00,,,0.00,503.00,VWS V14.01,2013-02-02 16:00:00,
2013-02-02 11:06:00,34.9,8.7,30.28,SSW,193,0.0,0.0,33,0.00,,,0.00,652.00,VWS V14.01,2013-02-02 16:06:00,
2013-02-02 11:11:00,35.2,6.1,30.28,WSW,241,0.0,4.0,29,0.00,,,0.00,592.00,VWS V14.01,2013-02-02 16:11:00,
2013-02-02 11:16:00,35.6,8.0,30.27,South,171,5.0,7.0,31,0.00,,,0.00,487.00,VWS V14.01,2013-02-02 16:16:00,
2013-02-02 11:21:00,35.6,8.0,30.27,South,190,0.0,0.0,31,0.00,,,0.00,390.00,VWS V14.01,2013-02-02 16:21:00,
2013-02-02 11:26:00,35.8,8.1,30.27,SE,128,4.0,5.0,31,0.00,,,0.00,390.00,VWS V14.01,2013-02-02 16:26:00,
2013-02-02 11:31:00,36.0,7.6,30.26,SSE,150,4.0,5.0,30,0.00,,,0.00,411.00,VWS V14.01,2013-02-02 16:31:00,
2013-02-02 11:35:00,36.2,6.2,30.26,SSE,166,1.0,1.0,28,0.00,,,0.00,698.00,VWS V14.01,2013-02-02 16:35:00,
2013-02-02 11:40:00,36.8,6.0,30.26,South,184,0.0,2.0,27,0.00,,,0.00,721.00,VWS V14.01,2013-02-02 16:40:00,
2013-02-02 11:45:00,37.5,7.4,30.25,SSW,206,5.0,6.0,28,0.00,,,0.00,626.00,VWS V14.01,2013-02-02 16:45:00,
2013-02-02 11:51:00,37.5,6.6,30.25,South,186,0.0,0.0,27,0.00,,,0.00,640.00,VWS V14.01,2013-02-02 16:51:00,
2013-02-02 11:56:00,37.6,7.5,30.25,South,180,3.0,3.0,28,0.00,,,0.00,708.00,VWS V14.01,2013-02-02 16:56:00,
2013-02-02 12:02:00,38.0,7.8,30.23,West,280,0.0,4.0,28,0.00,,,0.00,693.00,VWS V14.01,2013-02-02 17:02:00,
2013-02-02 12:07:00,38.3,8.1,30.23,SSE,163,4.0,8.0,28,0.00,,,0.00,617.00,VWS V14.01,2013-02-02 17:07:00,
2013-02-02 12:12:00,38.6,7.5,30.23,SSW,196,5.0,6.0,27,0.00,,,0.00,399.00,VWS V14.01,2013-02-02 17:12:00,
2013-02-02 12:17:00,38.5,7.4,30.22,SE,134,1.0,4.0,27,0.00,,,0.00,406.00,VWS V14.01,2013-02-02 17:17:00,
2013-02-02 12:22:00,38.3,7.3,30.22,SSE,167,3.0,10.0,27,0.00,,,0.00,336.00,VWS V14.01,2013-02-02 17:22:00,
2013-02-02 12:27:00,37.8,6.8,30.22,SW,227,8.0,8.0,27,0.00,,,0.00,336.00,VWS V14.01,2013-02-02 17:27:00,
2013-02-02 12:32:00,37.6,6.7,30.21,SSW,204,4.0,6.0,27,0.00,,,0.00,394.00,VWS V14.01,2013-02-02 17:32:00,
2013-02-02 12:37:00,37.9,6.9,30.21,SW,223,8.0,8.0,27,0.00,,,0.00,615.00,VWS V14.01,2013-02-02 17:37:00,
2013-02-02 12:42:00,38.3,7.3,30.21,South,191,9.0,10.0,27,0.00,,,0.00,515.00,VWS V14.01,2013-02-02 17:42:00,
2013-02-02 12:47:00,38.8,7.7,30.18,SSE,167,1.0,10.0,27,0.00,,,0.00,366.00,VWS V14.01,2013-02-02 17:47:00,
2013-02-02 12:52:00,39.1,8.8,30.18,SE,146,2.0,2.0,28,0.00,,,0.00,519.00,VWS V14.01,2013-02-02 17:52:00,
2013-02-02 12:57:00,39.6,7.6,30.18,South,191,2.0,9.0,26,0.00,,,0.00,492.00,VWS V14.01,2013-02-02 17:57:00,
2013-02-02 13:02:00,39.8,6.9,30.17,SSW,209,6.0,8.0,25,0.00,,,0.00,422.00,VWS V14.01,2013-02-02 18:02:00,
2013-02-02 13:07:00,39.6,5.8,30.17,SSW,200,10.0,11.0,24,0.00,,,0.00,580.00,VWS V14.01,2013-02-02 18:07:00,
2013-02-02 13:12:00,40.2,8.1,30.17,SSW,198,9.0,13.0,26,0.00,,,0.00,663.00,VWS V14.01,2013-02-02 18:12:00,
2013-02-02 13:17:00,40.3,6.4,30.16,South,177,4.0,4.0,24,0.00,,,0.00,668.00,VWS V14.01,2013-02-02 18:17:00,
2013-02-02 13:22:00,40.8,8.6,30.16,SSW,193,2.0,9.0,26,0.00,,,0.00,557.00,VWS V14.01,2013-02-02 18:22:00,
2013-02-02 13:27:00,41.2,6.2,30.16,SSW,203,4.0,6.0,23,0.00,,,0.00,584.00,VWS V14.01,2013-02-02 18:27:00,
2013-02-02 13:32:00,41.2,7.2,30.15,SE,139,11.0,11.0,24,0.00,,,0.00,548.00,VWS V14.01,2013-02-02 18:32:00,
2013-02-02 13:37:00,41.5,8.3,30.15,SSW,203,7.0,7.0,25,0.00,,,0.00,506.00,VWS V14.01,2013-02-02 18:37:00,
2013-02-02 13:42:00,41.6,8.4,30.15,SW,215,5.0,14.0,25,0.00,,,0.00,564.00,VWS V14.01,2013-02-02 18:42:00,
2013-02-02 13:47:00,42.1,8.8,30.14,SW,226,7.0,12.0,25,0.00,,,0.00,555.00,VWS V14.01,2013-02-02 18:47:00,
2013-02-02 13:52:00,41.9,7.8,30.14,SW,221,4.0,7.0,24,0.00,,,0.00,459.00,VWS V14.01,2013-02-02 18:52:00,
2013-02-02 13:57:00,42.1,7.9,30.14,SW,233,5.0,6.0,24,0.00,,,0.00,599.00,VWS V14.01,2013-02-02 18:57:00,
2013-02-02 14:02:00,41.9,6.8,30.13,West,271,5.0,5.0,23,0.00,,,0.00,580.00,VWS V14.01,2013-02-02 19:02:00,
2013-02-02 14:07:00,42.2,8.0,30.13,West,274,5.0,6.0,24,0.00,,,0.00,570.00,VWS V14.01,2013-02-02 19:07:00,
2013-02-02 14:12:00,42.5,8.3,30.13,WSW,246,2.0,3.0,24,0.00,,,0.00,564.00,VWS V14.01,2013-02-02 19:12:00,
2013-02-02 14:17:00,42.9,7.7,30.11,West,277,9.0,9.0,23,0.00,,,0.00,555.00,VWS V14.01,2013-02-02 19:17:00,
2013-02-02 14:22:00,42.9,7.7,30.11,WSW,250,9.0,9.0,23,0.00,,,0.00,545.00,VWS V14.01,2013-02-02 19:22:00,
2013-02-02 14:27:00,42.8,7.6,30.11,South,179,12.0,14.0,23,0.00,,,0.00,536.00,VWS V14.01,2013-02-02 19:27:00,
2013-02-02 14:32:00,42.8,8.5,30.11,South,179,7.0,7.0,24,0.00,,,0.00,526.00,VWS V14.01,2013-02-02 19:32:00,
2013-02-02 14:37:00,42.8,11.1,30.11,South,185,7.0,12.0,27,0.00,,,0.00,512.00,VWS V14.01,2013-02-02 19:37:00,
2013-02-02 14:42:00,42.6,7.4,30.11,SW,217,4.0,9.0,23,0.00,,,0.00,503.00,VWS V14.01,2013-02-02 19:42:00,
2013-02-02 14:47:00,42.9,7.7,30.10,South,191,11.0,12.0,23,0.00,,,0.00,494.00,VWS V14.01,2013-02-02 19:47:00,
2013-02-02 14:52:00,42.9,8.6,30.10,SW,217,13.0,14.0,24,0.00,,,0.00,492.00,VWS V14.01,2013-02-02 19:52:00,
2013-02-02 14:57:00,43.2,6.9,30.10,SW,226,7.0,13.0,22,0.00,,,0.00,512.00,VWS V14.01,2013-02-02 19:57:00,
2013-02-02 15:02:00,43.2,7.9,30.09,WNW,285,3.0,7.0,23,0.00,,,0.00,490.00,VWS V14.01,2013-02-02 20:02:00,
2013-02-02 15:07:00,43.6,9.2,30.09,SSW,208,13.0,15.0,24,0.00,,,0.00,214.00,VWS V14.01,2013-02-02 20:07:00,
2013-02-02 15:12:00,43.3,8.9,30.09,WNW,283,4.0,4.0,24,0.00,,,0.00,269.00,VWS V14.01,2013-02-02 20:12:00,
2013-02-02 15:17:00,43.3,8.0,30.09,SSW,207,13.0,13.0,23,0.00,,,0.00,283.00,VWS V14.01,2013-02-02 20:17:00,
2013-02-02 15:22:00,43.1,7.8,30.09,SW,233,3.0,5.0,23,0.00,,,0.00,253.00,VWS V14.01,2013-02-02 20:22:00,
2013-02-02 15:27:00,43.1,8.8,30.09,SSW,212,3.0,3.0,24,0.00,,,0.00,577.00,VWS V14.01,2013-02-02 20:27:00,
2013-02-02 15:32:00,43.5,9.1,30.08,SSW,197,7.0,8.0,24,0.00,,,0.00,531.00,VWS V14.01,2013-02-02 20:32:00,
2013-02-02 15:37:00,43.8,8.4,30.08,SSW,196,6.0,6.0,23,0.00,,,0.00,434.00,VWS V14.01,2013-02-02 20:37:00,
2013-02-02 15:42:00,43.9,8.5,30.08,South,174,5.0,7.0,23,0.00,,,0.00,213.00,VWS V14.01,2013-02-02 20:42:00,
2013-02-02 15:47:00,43.9,8.5,30.08,South,189,6.0,6.0,23,0.00,,,0.00,125.00,VWS V14.01,2013-02-02 20:47:00,
2013-02-02 15:52:00,43.8,9.4,30.08,South,185,5.0,6.0,24,0.00,,,0.00,151.00,VWS V14.01,2013-02-02 20:52:00,
2013-02-02 15:57:00,43.8,9.4,30.08,South,191,0.0,5.0,24,0.00,,,0.00,125.00,VWS V14.01,2013-02-02 20:57:00,
2013-02-02 16:02:00,43.8,8.4,30.07,SW,232,3.0,3.0,23,0.00,,,0.00,84.00,VWS V14.01,2013-02-02 21:02:00,
2013-02-02 16:07:00,43.6,9.2,30.07,SSW,193,6.0,7.0,24,0.00,,,0.00,93.00,VWS V14.01,2013-02-02 21:07:00,
2013-02-02 16:12:00,43.5,9.1,30.07,SW,217,12.0,12.0,24,0.00,,,0.00,86.00,VWS V14.01,2013-02-02 21:12:00,
2013-02-02 16:17:00,43.1,8.8,30.07,WSW,255,3.0,3.0,24,0.00,,,0.00,72.00,VWS V14.01,2013-02-02 21:17:00,
2013-02-02 16:21:00,42.8,8.5,30.07,SSW,207,0.0,0.0,24,0.00,,,0.00,109.00,VWS V14.01,2013-02-02 21:21:00,
2013-02-02 16:26:00,42.8,9.4,30.07,South,174,6.0,9.0,25,0.00,,,0.00,83.00,VWS V14.01,2013-02-02 21:26:00,
2013-02-02 16:31:00,42.8,9.4,30.05,SSW,209,0.0,3.0,25,0.00,,,0.00,81.00,VWS V14.01,2013-02-02 21:31:00,
2013-02-02 16:36:00,42.9,9.5,30.05,SW,219,0.0,0.0,25,0.00,,,0.00,88.00,VWS V14.01,2013-02-02 21:36:00,
2013-02-02 16:41:00,42.9,9.5,30.05,SW,221,0.0,2.0,25,0.00,,,0.00,63.00,VWS V14.01,2013-02-02 21:41:00,
2013-02-02 16:46:00,42.9,9.5,30.06,SSW,195,0.0,3.0,25,0.00,,,0.00,53.00,VWS V14.01,2013-02-02 21:46:00,
2013-02-02 16:51:00,42.9,9.5,30.06,SW,226,0.0,0.0,25,0.00,,,0.00,49.00,VWS V14.01,2013-02-02 21:51:00,
2013-02-02 16:56:00,42.8,9.4,30.06,South,188,2.0,4.0,25,0.00,,,0.00,35.00,VWS V14.01,2013-02-02 21:56:00,
2013-02-02 17:01:00,42.6,10.1,30.05,South,188,0.0,0.0,26,0.00,,,0.00,33.00,VWS V14.01,2013-02-02 22:01:00,
2013-02-02 17:06:00,42.5,10.1,30.05,South,188,0.0,0.0,26,0.00,,,0.00,33.00,VWS V14.01,2013-02-02 22:06:00,
2013-02-02 17:11:00,42.3,9.9,30.05,South,188,2.0,2.0,26,0.00,,,0.00,26.00,VWS V14.01,2013-02-02 22:11:00,
2013-02-02 17:16:00,42.2,10.6,30.05,South,188,0.0,0.0,27,0.00,,,0.00,19.00,VWS V14.01,2013-02-02 22:16:00,
2013-02-02 17:21:00,42.1,10.6,30.05,South,188,0.0,0.0,27,0.00,,,0.00,14.00,VWS V14.01,2013-02-02 22:21:00,
2013-02-02 17:26:00,42.1,10.6,30.05,South,188,0.0,0.0,27,0.00,,,0.00,12.00,VWS V14.01,2013-02-02 22:26:00,
2013-02-02 17:31:00,41.9,11.2,30.04,South,188,0.0,0.0,28,0.00,,,0.00,7.00,VWS V14.01,2013-02-02 22:31:00,
2013-02-02 17:36:00,41.6,11.7,30.04,South,188,0.0,0.0,29,0.00,,,0.00,5.00,VWS V14.01,2013-02-02 22:36:00,
2013-02-02 17:41:00,41.5,11.6,30.04,South,188,0.0,0.0,29,0.00,,,0.00,0.00,VWS V14.01,2013-02-02 22:41:00,
2013-02-02 17:46:00,41.2,12.9,30.04,South,188,0.0,0.0,31,0.00,,,0.00,0.00,VWS V14.01,2013-02-02 22:46:00,
2013-02-02 17:51:00,40.9,13.3,30.04,South,188,0.0,0.0,32,0.00,,,0.00,0.00,VWS V14.01,2013-02-02 22:51:00,
2013-02-02 17:56:00,40.8,12.5,30.04,South,188,1.0,1.0,31,0.00,,,0.00,0.00,VWS V14.01,2013-02-02 22:56:00,
2013-02-02 18:01:00,40.5,13.0,30.03,South,188,0.0,0.0,32,0.00,,,0.00,0.00,VWS V14.01,2013-02-02 23:01:00,
2013-02-02 18:06:00,40.3,13.5,30.03,South,188,0.0,0.0,33,0.00,,,0.00,0.00,VWS V14.01,2013-02-02 23:06:00,
2013-02-02 18:11:00,40.2,12.7,30.03,South,188,0.0,0.0,32,0.00,,,0.00,0.00,VWS V14.01,2013-02-02 23:11:00,
2013-02-02 18:16:00,40.2,14.1,30.02,South,188,0.0,0.0,34,0.00,,,0.00,0.00,VWS V14.01,2013-02-02 23:16:00,
2013-02-02 18:21:00,40.2,13.4,30.02,South,188,0.0,0.0,33,0.00,,,0.00,0.00,VWS V14.01,2013-02-02 23:21:00,
2013-02-02 18:26:00,40.3,14.8,30.02,South,188,0.0,0.0,35,0.00,,,0.00,0.00,VWS V14.01,2013-02-02 23:26:00,
2013-02-02 18:31:00,40.3,14.2,30.02,South,188,0.0,0.0,34,0.00,,,0.00,0.00,VWS V14.01,2013-02-02 23:31:00,
2013-02-02 18:36:00,40.5,13.7,30.02,SSE,163,1.0,3.0,33,0.00,,,0.00,0.00,VWS V14.01,2013-02-02 23:36:00,
2013-02-02 18:41:00,40.6,13.8,30.02,SSE,163,0.0,0.0,33,0.00,,,0.00,0.00,VWS V14.01,2013-02-02 23:41:00,
2013-02-02 18:46:00,40.8,13.2,30.02,SSE,163,0.0,0.0,32,0.00,,,0.00,0.00,VWS V14.01,2013-02-02 23:46:00,
2013-02-02 18:51:00,40.8,13.9,30.02,SSE,162,3.0,4.0,33,0.00,,,0.00,0.00,VWS V14.01,2013-02-02 23:51:00,
2013-02-02 18:56:00,40.9,12.6,30.02,SSW,205,0.0,0.0,31,0.00,,,0.00,0.00,VWS V14.01,2013-02-02 23:56:00,
2013-02-02 19:01:00,41.1,13.5,30.01,SSW,205,0.0,0.0,32,0.00,,,0.00,0.00,VWS V14.01,2013-02-03 00:01:00,
2013-02-02 19:06:00,41.1,13.5,30.01,SSW,205,0.0,0.0,32,0.00,,,0.00,0.00,VWS V14.01,2013-02-03 00:06:00,
2013-02-02 19:11:00,41.1,12.8,30.01,SSW,205,0.0,0.0,31,0.00,,,0.00,0.00,VWS V14.01,2013-02-03 00:11:00,
2013-02-02 19:16:00,40.9,14.0,30.01,SSW,205,0.0,0.0,33,0.00,,,0.00,0.00,VWS V14.01,2013-02-03 00:16:00,
2013-02-02 19:21:00,40.8,15.3,30.01,SSW,205,0.0,0.0,35,0.00,,,0.00,0.00,VWS V14.01,2013-02-03 00:21:00,
2013-02-02 19:26:00,40.8,14.6,30.01,SSW,205,0.0,0.0,34,0.00,,,0.00,0.00,VWS V14.01,2013-02-03 00:26:00,
2013-02-02 19:31:00,40.6,14.4,30.00,SSW,205,0.0,0.0,34,0.00,,,0.00,0.00,VWS V14.01,2013-02-03 00:31:00,
2013-02-02 19:36:00,40.6,14.4,30.00,SSW,205,0.0,0.0,34,0.00,,,0.00,0.00,VWS V14.01,2013-02-03 00:36:00,
2013-02-02 19:41:00,40.6,13.1,30.00,SSW,205,0.0,0.0,32,0.00,,,0.00,0.00,VWS V14.01,2013-02-03 00:41:00,
2013-02-02 19:46:00,40.8,13.9,30.00,SSW,205,0.0,0.0,33,0.00,,,0.00,0.00,VWS V14.01,2013-02-03 00:46:00,
2013-02-02 19:51:00,40.8,13.9,30.00,SSW,205,0.0,0.0,33,0.00,,,0.00,0.00,VWS V14.01,2013-02-03 00:51:00,
2013-02-02 19:56:00,40.8,13.9,30.00,SSW,205,2.0,2.0,33,0.00,,,0.00,0.00,VWS V14.01,2013-02-03 00:56:00,
2013-02-02 20:01:00,40.8,16.6,29.99,SSW,205,0.0,0.0,37,0.00,,,0.00,0.00,VWS V14.01,2013-02-03 01:01:00,
2013-02-02 20:06:00,40.8,17.2,29.99,SSW,205,0.0,0.0,38,0.00,,,0.00,0.00,VWS V14.01,2013-02-03 01:06:00,
2013-02-02 20:11:00,40.6,15.1,29.99,SSW,205,0.0,0.0,35,0.00,,,0.00,0.00,VWS V14.01,2013-02-03 01:11:00,
2013-02-02 20:16:00,40.6,16.4,29.98,SSW,205,0.0,0.0,37,0.00,,,0.00,0.00,VWS V14.01,2013-02-03 01:16:00,
2013-02-02 20:21:00,40.5,15.7,29.98,SSW,205,0.0,0.0,36,0.00,,,0.00,0.00,VWS V14.01,2013-02-03 01:21:00,
2013-02-02 20:26:00,40.3,16.1,29.98,SSW,205,0.0,0.0,37,0.00,,,0.00,0.00,VWS V14.01,2013-02-03 01:26:00,
2013-02-02 20:31:00,40.3,15.5,29.98,SSW,205,0.0,1.0,36,0.00,,,0.00,0.00,VWS V14.01,2013-02-03 01:31:00,
2013-02-02 20:36:00,40.3,14.8,29.98,SSW,205,0.0,2.0,35,0.00,,,0.00,0.00,VWS V14.01,2013-02-03 01:36:00,
2013-02-02 20:41:00,40.3,14.8,29.98,SSW,204,0.0,0.0,35,0.00,,,0.00,0.00,VWS V14.01,2013-02-03 01:41:00,
2013-02-02 20:46:00,40.3,14.8,29.97,SSW,205,0.0,0.0,35,0.00,,,0.00,0.00,VWS V14.01,2013-02-03 01:46:00,
2013-02-02 20:51:00,40.3,14.8,29.97,SSW,205,0.0,0.0,35,0.00,,,0.00,0.00,VWS V14.01,2013-02-03 01:51:00,
2013-02-02 20:56:00,40.3,16.1,29.97,SSW,205,0.0,0.0,37,0.00,,,0.00,0.00,VWS V14.01,2013-02-03 01:56:00,
2013-02-02 21:01:00,40.3,14.8,29.97,SSW,205,0.0,2.0,35,0.00,,,0.00,0.00,VWS V14.01,2013-02-03 02:01:00,
2013-02-02 21:06:00,40.3,15.5,29.97,SSW,205,0.0,2.0,36,0.00,,,0.00,0.00,VWS V14.01,2013-02-03 02:06:00,
2013-02-02 21:11:00,40.3,16.1,29.97,SSW,205,0.0,0.0,37,0.00,,,0.00,0.00,VWS V14.01,2013-02-03 02:11:00,
2013-02-02 21:16:00,40.3,14.8,29.97,SSW,205,0.0,0.0,35,0.00,,,0.00,0.00,VWS V14.01,2013-02-03 02:16:00,
2013-02-02 21:21:00,40.5,15.7,29.97,SSW,205,0.0,0.0,36,0.00,,,0.00,0.00,VWS V14.01,2013-02-03 02:21:00,
2013-02-02 21:26:00,40.6,17.0,29.97,SSW,205,1.0,1.0,38,0.00,,,0.00,0.00,VWS V14.01,2013-02-03 02:26:00,
2013-02-02 21:31:00,40.6,16.4,29.97,SSW,205,0.0,0.0,37,0.00,,,0.00,0.00,VWS V14.01,2013-02-03 02:31:00,
2013-02-02 21:36:00,40.6,17.6,29.97,SSW,205,0.0,0.0,39,0.00,,,0.00,0.00,VWS V14.01,2013-02-03 02:36:00,
2013-02-02 21:41:00,40.6,17.6,29.97,South,186,0.0,5.0,39,0.00,,,0.00,0.00,VWS V14.01,2013-02-03 02:41:00,
2013-02-02 21:46:00,40.8,17.2,29.97,SW,224,0.0,0.0,38,0.00,,,0.00,0.00,VWS V14.01,2013-02-03 02:46:00,
2013-02-02 21:51:00,41.6,20.8,29.97,WSW,255,5.0,13.0,43,0.00,,,0.00,0.00,VWS V14.01,2013-02-03 02:51:00,
2013-02-02 21:56:00,42.6,22.2,29.97,West,264,4.0,6.0,44,0.00,,,0.00,0.00,VWS V14.01,2013-02-03 02:56:00,
2013-02-02 22:01:00,43.3,23.9,29.96,SW,236,13.0,17.0,46,0.00,,,0.00,0.00,VWS V14.01,2013-02-03 03:01:00,
2013-02-02 22:06:00,44.1,25.7,29.96,SW,226,7.0,13.0,48,0.00,,,0.00,0.00,VWS V14.01,2013-02-03 03:06:00,
2013-02-02 22:11:00,44.6,26.1,29.96,WSW,254,1.0,6.0,48,0.00,,,0.00,0.00,VWS V14.01,2013-02-03 03:11:00,
2013-02-02 22:16:00,44.9,25.9,29.96,SW,226,0.0,3.0,47,0.00,,,0.00,0.00,VWS V14.01,2013-02-03 03:16:00,
2013-02-02 22:21:00,44.9,25.9,29.96,SW,233,0.0,4.0,47,0.00,,,0.00,0.00,VWS V14.01,2013-02-03 03:21:00,
2013-02-02 22:26:00,45.1,26.1,29.96,WSW,245,1.0,5.0,47,0.00,,,0.00,0.00,VWS V14.01,2013-02-03 03:26:00,
2013-02-02 22:31:00,45.1,26.6,29.96,West,259,4.0,9.0,48,0.00,,,0.00,0.00,VWS V14.01,2013-02-03 03:31:00,
2013-02-02 22:36:00,45.1,27.1,29.96,WNW,290,13.0,13.0,49,0.00,,,0.00,0.00,VWS V14.01,2013-02-03 03:36:00,
2013-02-02 22:41:00,45.1,28.1,29.96,SSW,213,12.0,15.0,51,0.00,,,0.00,0.00,VWS V14.01,2013-02-03 03:41:00,
2013-02-02 22:46:00,44.9,29.3,29.95,West,262,11.0,11.0,54,0.00,,,0.00,0.00,VWS V14.01,2013-02-03 03:46:00,
2013-02-02 22:51:00,44.8,29.6,29.95,West,279,6.0,6.0,55,0.00,,,0.00,0.00,VWS V14.01,2013-02-03 03:51:00,
2013-02-02 22:56:00,44.6,29.9,29.95,WNW,293,4.0,10.0,56,0.00,,,0.00,0.00,VWS V14.01,2013-02-03 03:56:00,
2013-02-02 23:01:00,44.6,30.3,29.95,WSW,237,0.0,4.0,57,0.00,,,0.00,0.00,VWS V14.01,2013-02-03 04:01:00,
2013-02-02 23:06:00,44.5,30.7,29.95,WSW,247,0.0,10.0,58,0.00,,,0.00,0.00,VWS V14.01,2013-02-03 04:06:00,
2013-02-02 23:11:00,44.5,31.1,29.95,SW,236,2.0,4.0,59,0.00,,,0.00,0.00,VWS V14.01,2013-02-03 04:11:00,
2013-02-02 23:16:00,44.3,31.3,29.95,West,265,4.0,6.0,60,0.00,,,0.00,0.00,VWS V14.01,2013-02-03 04:16:00,
2013-02-02 23:21:00,44.3,32.1,29.95,WSW,243,0.0,6.0,62,0.00,,,0.00,0.00,VWS V14.01,2013-02-03 04:21:00,
2013-02-02 23:26:00,44.2,32.4,29.95,WSW,252,5.0,5.0,63,0.00,,,0.00,0.00,VWS V14.01,2013-02-03 04:26:00,
2013-02-02 23:31:00,44.1,32.3,29.95,West,269,2.0,2.0,63,0.00,,,0.00,0.00,VWS V14.01,2013-02-03 04:31:00,
2013-02-02 23:36:00,44.1,32.7,29.95,SW,231,4.0,13.0,64,0.00,,,0.00,0.00,VWS V14.01,2013-02-03 04:36:00,
2013-02-02 23:41:00,43.8,33.6,29.95,West,264,13.0,14.0,67,0.00,,,0.00,0.00,VWS V14.01,2013-02-03 04:41:00,
2013-02-02 23:46:00,43.6,33.8,29.94,West,260,13.0,13.0,68,0.00,,,0.00,0.00,VWS V14.01,2013-02-03 04:46:00,
2013-02-02 23:51:00,43.3,33.8,29.94,WSW,250,3.0,5.0,69,0.00,,,0.00,0.00,VWS V14.01,2013-02-03 04:51:00,
2013-02-02 23:56:00,43.2,34.5,29.94,SW,224,12.0,12.0,71,0.00,,,0.00,0.00,VWS V14.01,2013-02-03 04:56:00,